Probability
73 70 66 64 64 64 64 61 56 49 43 36 30 28 31 35 36 36 34 27 19 15 11 8 8 8 7 6 4 3 3 2 1 0 0 0 1 2 2 1 0 1 1
75 70 66 65 64 63 61 57 52 47 42 35 29 26 29 31 31 34 33 26 19 15 11 9 9 10 9 8 8 7 5 3 3 2 0 0 0 1 1 0 0 0 1
73 67 64 65 63 60 56 50 46 43 39 34 28 25 24 23 25 31 33 28 22 19 17 14 13 13 12 11 11 10 7 6 5 4 2 1 1 0 0 0 0 0 0
64 61 59 59 58 56 51 45 41 39 35 31 27 24 21 19 19 27 32 29 24 21 21 21 19 16 14 13 12 10 8 8 8 7 5 4 3 1 1 0 0 0 0
54 53 52 52 50 48 45 40 38 36 33 29 27 24 22 19 19 24 29 26 20 18 20 23 23 20 17 15 13 11 9 9 9 8 7 6 4 3 1 0 0 0 0
50 49 47 45 41 38 37 37 36 34 30 27 25 24 24 22 20 21 22 19 15 15 17 22 26 24 19 16 15 13 10 9 9 9 7 6 4 4 3 2 1 1 1
48 48 44 37 31 29 31 33 33 32 28 25 25 26 27 25 20 18 16 15 14 15 19 23 27 27 22 18 16 14 11 9 8 8 7 6 5 5 5 5 3 2 2
44 45 40 32 27 26 28 29 31 31 28 26 27 30 30 26 21 17 14 14 14 16 20 25 27 27 23 18 16 14 12 10 8 7 7 7 7 7 7 7 5 3 2
39 40 38 31 27 27 28 29 30 29 28 27 28 29 30 27 23 19 15 13 12 13 17 24 27 25 21 20 17 14 12 12 9 7 7 8 8 8 8 8 6 4 2
40 39 37 33 27 27 29 29 28 27 26 27 26 26 27 27 25 21 18 15 14 13 14 20 23 21 19 20 18 15 12 11 9 7 8 8 8 10 12 10 9 7 4
41 44 42 35 29 25 25 25 25 24 24 25 25 25 26 27 25 23 21 20 17 15 16 18 18 17 15 15 15 13 10 9 9 7 7 7 9 13 15 14 12 9 6
45 50 48 40 32 25 21 21 23 23 23 24 24 25 27 27 25 24 23 21 18 15 15 15 15 13 11 12 12 9 7 8 9 9 9 8 9 13 15 14 11 9 8
53 54 53 47 38 29 22 20 22 24 23 22 23 25 28 28 26 24 22 20 18 15 12 12 13 11 9 10 10 8 6 7 9 11 12 11 10 11 11 9 8 7 7
58 59 59 55 48 38 29 24 24 25 25 23 23 25 27 29 28 26 23 20 18 15 14 14 14 13 10 9 10 10 8 7 9 11 13 11 9 8 7 6 6 5 6
63 65 66 63 58 48 37 30 27 26 26 25 25 25 26 27 27 25 22 19 17 17 17 17 16 14 10 7 9 11 10 10 11 11 10 8 6 5 5 5 4 4 4
71 72 70 67 63 55 46 39 32 28 27 26 25 25 24 23 22 20 18 18 17 17 17 17 15 13 9 6 6 10 12 13 14 12 8 5 4 4 4 3 2 1 1
75 74 71 68 65 59 51 44 37 33 30 27 24 21 19 18 16 16 18 20 18 17 17 16 15 14 10 5 3 6 12 16 16 12 7 4 3 3 3 3 1 0 0
76 73 68 67 64 57 50 44 40 35 32 30 26 21 17 15 15 16 20 22 19 17 17 17 17 16 12 6 2 4 10 15 15 11 8 6 4 3 3 3 2 1 0
72 68 63 61 59 54 49 45 40 36 36 36 32 26 20 16 16 17 20 20 18 17 17 17 17 17 13 6 2 3 9 13 12 9 7 6 5 4 3 3 3 2 1
66 62 57 53 52 52 52 48 42 39 40 39 35 29 22 18 16 17 18 18 18 18 16 15 15 15 12 6 2 3 7 9 8 7 6 6 5 3 3 3 3 2 1
56 54 49 46 47 49 50 48 43 39 38 37 33 28 23 18 16 15 15 16 17 17 16 14 13 11 8 4 1 1 4 5 4 4 5 4 3 1 1 2 3 2 1
43 43 42 41 43 44 42 40 39 36 33 30 27 25 22 18 15 13 12 12 13 14 14 12 9 7 4 1 0 0 1 1 1 1 2 1 1 0 0 1 2 1 0
34 35 36 38 40 40 35 32 33 32 27 22 21 21 18 15 12 10 9 9 9 10 10 9 6 3 1 0 0 0 0 0 0 0 0 0 0 0 0 0 0 0 0
33 32 32 32 33 34 31 28 29 28 23 20 19 18 16 13 10 7 6 6 5 5 6 6 4 2 0 0 0 0 0 0 0 0 0 0 0 0 0 0 0 0 0
28 28 26 25 25 26 25 25 25 24 21 19 18 17 15 12 8 4 2 2 1 2 3 3 2 0 0 0 0 0 0 0 0 0 0 0 0 0 0 0 0 0 0
22 22 21 20 20 21 21 22 22 20 19 18 16 15 13 11 7 2 0 0 0 0 1 1 0 0 0 0 0 0 0 0 0 0 0 0 0 0 0 0 0 0 0
Wind_Speed
11 11 11 11 11 10 10 10 9 9 7 6 5 4 4 3 3 4 6 6 5 6 3 2 4 2 2 3 3 3 3 1 1 1 1 1 3 4 4 3 3 5 5
12 12 11 11 11 11 10 9 9 9 9 6 4 4 3 3 3 3 5 6 5 5 6 3 3 3 2 2 2 2 1 2 2 2 1 0 1 1 4 4 4 4 4
13 13 12 11 11 11 10 9 9 9 9 8 5 4 3 2 3 3 4 5 5 5 4 5 3 3 3 3 3 3 3 1 1 2 2 1 1 2 1 4 3 3 3
11 12 11 10 11 11 10 8 8 9 8 8 8 8 6 5 5 4 4 4 5 5 4 5 4 3 2 4 4 4 3 2 2 1 2 2 2 1 1 1 2 4 4
12 12 11 11 10 10 9 9 9 9 9 8 8 8 7 5 4 4 5 5 4 5 5 5 4 3 3 4 3 3 2 2 2 2 1 2 2 3 2 2 2 1 3
12 11 11 10 8 9 9 9 9 8 9 8 7 7 7 6 6 5 6 5 4 5 6 6 4 4 3 4 3 3 3 2 1 1 1 1 2 2 2 2 3 2 2
11 11 11 10 9 9 8 9 9 9 9 9 8 7 6 6 6 6 6 5 5 5 6 6 5 4 3 4 3 3 2 3 3 2 2 1 1 0 0 1 2 2 1
10 10 10 9 8 8 8 9 9 9 9 8 7 7 6 5 5 6 5 5 4 4 6 6 5 5 5 5 4 3 4 3 3 3 1 2 1 1 1 1 1 1 1
10 11 11 9 8 9 8 8 8 8 8 8 7 7 7 6 5 5 5 4 4 5 6 6 6 6 5 4 4 3 3 3 3 2 2 1 1 1 1 1 1 1 1
10 11 11 10 9 8 8 8 8 7 7 7 7 6 6 5 5 5 6 5 5 5 6 6 6 6 5 4 3 2 3 3 2 1 1 1 2 2 2 2 2 2 1
11 11 10 10 9 9 8 8 8 7 7 6 6 5 5 5 4 4 4 4 4 5 5 5 5 5 4 4 3 2 3 3 2 2 2 2 2 3 3 3 3 3 2
11 11 11 10 9 9 8 7 7 7 6 6 6 5 5 4 4 4 3 3 4 5 5 4 4 4 4 4 4 3 3 3 3 2 3 3 2 3 4 3 3 3 3
10 11 10 8 8 7 7 7 7 6 6 6 6 5 5 4 4 3 3 4 4 4 4 4 5 4 4 4 4 3 4 4 4 4 4 4 4 4 4 5 4 3 4
9 9 8 7 7 6 6 6 6 6 6 5 5 5 4 4 4 3 3 4 4 5 4 4 4 4 4 4 5 5 6 6 7 7 7 6 6 5 4 4 4 4 4
10 9 8 7 6 6 5 5 5 5 4 5 4 4 4 4 4 4 4 4 4 5 4 4 4 4 4 5 7 8 8 8 9 9 9 11 13 14 9 7 6 5 4
10 9 9 8 7 6 5 5 4 4 4 4 4 4 5 4 4 4 4 5 5 5 5 5 5 5 4 8 11 10 9 9 9 9 8 9 11 14 16 17 15 11 7
10 9 8 7 7 6 5 5 4 4 4 4 5 5 5 5 4 5 5 5 5 6 7 6 7 7 8 12 13 13 9 9 8 7 6 7 8 8 8 11 13 14 15
9 8 8 8 8 7 6 5 5 4 4 5 5 5 5 5 5 5 5 5 5 6 6 7 7 8 9 13 15 15 10 9 8 7 7 7 6 5 5 8 8 8 8
8 7 7 7 7 6 6 5 5 4 4 5 5 5 6 6 5 5 5 5 6 6 7 8 8 9 9 11 12 12 9 9 9 8 8 7 7 8 7 7 7 7 5
8 7 7 7 6 5 5 5 5 5 4 4 5 5 5 6 6 6 6 6 6 7 8 8 8 9 8 9 11 10 8 9 8 8 8 11 9 10 9 6 6 6 4
7 7 7 6 5 4 4 5 4 4 4 5 6 6 6 6 6 7 6 7 7 8 9 9 8 8 8 9 9 9 7 8 8 7 6 6 10 11 10 8 5 4 1
7 6 6 5 4 4 4 4 4 4 4 5 6 7 6 6 6 7 7 7 8 9 9 9 9 7 7 8 9 10 9 9 8 7 6 6 10 10 9 6 5 4 3
5 5 5 5 5 4 4 4 4 4 6 6 6 7 7 7 6 7 8 7 7 7 7 7 8 7 6 8 13 14 15 13 8 8 11 9 8 6 5 5 4 4 2
5 4 5 5 4 4 4 4 4 5 6 7 7 7 8 8 7 5 5 5 5 6 7 7 8 8 6 6 7 8 10 13 11 9 9 8 5 2 2 1 0 1 2
4 5 4 4 4 4 4 3 4 5 6 7 7 8 8 8 8 8 7 6 5 4 6 7 7 8 7 6 8 7 6 6 7 6 5 4 3 3 2 2 2 2 2
5 5 5 4 4 4 3 3 3 5 6 7 7 7 7 7 8 9 10 17 13 15 14 13 10 8 10 13 12 12 11 10 8 5 4 4 3 3 3 3 3 3 3
Wind_Direction
160 154 156 163 163 166 171 173 178 171 167 168 172 180 193 191 183 166 156 164 178 159 184 175 152 199 160 155 150 148 154 188 179 156 181 212 190 179 178 196 183 179 178
151 154 161 166 169 173 175 177 180 174 173 168 170 180 178 190 193 171 155 169 173 163 181 178 177 171 147 157 152 135 153 202 183 172 150 241 274 226 197 181 187 184 172
155 159 167 172 172 177 180 183 181 178 178 168 168 175 175 191 188 173 162 171 172 181 185 166 194 164 172 162 179 168 182 205 208 189 160 171 189 214 229 194 180 171 176
153 159 165 174 177 177 177 180 178 175 175 173 178 179 186 191 190 182 163 171 179 182 175 175 180 176 176 156 193 185 184 197 218 209 208 197 149 161 197 245 183 177 180
156 159 165 171 177 174 174 176 176 176 176 181 183 188 191 191 184 176 162 173 181 192 183 177 175 182 187 169 186 150 185 209 216 210 202 210 190 203 177 194 201 189 184
152 154 158 161 166 167 170 170 172 176 176 184 187 197 196 188 180 176 175 184 181 196 191 180 177 187 193 165 170 167 192 213 255 295 280 233 212 217 183 166 180 183 197
149 150 155 161 165 167 166 166 170 176 178 184 189 197 197 189 187 185 190 197 187 189 188 184 175 189 179 166 170 172 200 196 201 237 272 283 265 300 113 139 170 150 167
148 151 154 157 162 165 165 166 169 173 176 182 186 189 191 194 195 198 195 203 200 187 172 171 176 191 183 184 174 182 195 186 190 217 238 304 321 352 16 85 121 142 167
146 149 147 153 161 163 160 161 163 167 174 181 180 184 192 200 199 193 198 197 191 182 178 175 179 187 185 180 168 198 189 160 184 208 198 248 290 309 16 28 91 135 168
151 148 148 155 159 155 155 155 160 167 175 178 179 183 189 194 198 197 199 195 192 187 178 177 174 178 171 172 174 189 169 166 176 177 150 124 339 7 29 17 37 60 93
154 145 143 144 150 151 155 157 157 164 171 174 178 177 179 186 193 199 198 188 180 177 174 173 169 166 164 168 168 183 163 166 166 188 128 102 43 30 24 29 41 42 59
140 140 141 146 153 154 153 155 160 165 170 169 165 171 175 173 183 187 187 178 174 173 165 159 162 167 165 163 159 176 151 133 128 114 97 95 90 68 36 34 44 46 58
137 138 141 147 151 150 151 154 161 163 166 164 163 167 171 172 179 180 178 171 164 162 162 162 161 162 159 154 150 146 120 115 109 100 90 80 77 68 56 46 37 29 50
138 140 141 139 138 137 140 150 158 158 161 157 162 161 163 162 163 163 162 158 157 154 156 150 150 151 151 142 134 124 107 98 86 82 79 70 68 64 59 60 46 40 42
147 147 145 137 135 135 141 143 146 145 147 149 153 146 141 138 138 135 139 140 145 149 142 132 126 130 141 141 128 120 116 106 96 86 80 76 76 70 64 65 53 49 50
150 149 144 141 143 143 148 142 141 141 139 142 143 136 134 134 135 137 135 131 128 124 117 113 113 111 119 119 121 121 114 111 109 103 97 91 83 82 79 74 67 61 63
146 143 144 145 145 145 143 141 139 140 142 144 145 141 135 131 130 132 125 122 120 115 110 109 108 106 102 106 109 112 111 107 106 107 106 100 96 92 93 86 76 64 59
139 138 142 143 142 143 141 137 139 144 149 147 145 144 140 134 128 123 122 121 119 115 115 111 111 107 104 106 106 106 103 100 96 94 95 95 86 80 95 97 86 72 57
126 129 132 131 131 135 136 139 143 147 151 148 141 141 140 136 131 127 127 126 124 121 118 118 117 114 108 108 112 112 106 100 91 84 81 89 84 65 88 103 102 98 89
112 118 117 114 113 118 132 139 142 141 141 138 134 128 129 132 130 126 119 116 118 118 115 110 108 111 112 110 113 114 113 110 104 93 80 73 78 67 72 90 95 92 82
106 107 108 108 106 110 123 130 127 133 133 128 129 125 125 125 124 118 114 114 114 111 108 104 98 96 95 95 100 111 116 121 117 108 97 79 77 72 69 75 81 85 68
111 108 105 101 95 98 116 126 125 123 118 121 121 119 117 119 122 120 117 116 117 116 113 109 101 88 82 82 85 90 100 111 111 108 104 96 83 75 70 70 52 33 7
107 103 103 98 89 84 103 119 120 124 124 121 121 118 115 108 112 118 122 121 121 121 121 118 113 107 97 83 82 86 90 93 97 102 109 111 102 92 83 76 44 20 24
104 99 99 95 88 79 89 101 120 119 118 120 119 118 115 108 100 100 105 112 121 128 127 125 125 121 115 112 107 101 98 97 102 109 113 110 101 75 68 111 74 63 47
88 89 91 88 83 79 82 94 114 119 121 119 120 117 114 114 99 80 63 80 77 110 131 131 132 132 127 120 121 127 119 119 117 128 136 147 153 160 157 126 97 85 74
89 88 90 95 92 88 84 88 109 124 127 124 124 124 122 116 111 103 82 58 66 71 79 90 103 98 110 118 108 103 105 112 127 137 149 151 147 137 129 126 120 99 75